This demonstration page uses our WeatherBlox Daily Observations layout. Learn more.

Left ArrowRight Arrow

Hourly Observations for December 6, 2015

Temp ( °F °C ) Dew Point ( °F °C ) Humidity (%) Winds ( mph kmh ) Pressure ( in mb ) Visibility ( mi km ) Precip ( " mm )
12:58 am 00:58 Mostly Cloudy 42 5.6 37 3 84 84 Calm 30.27 1025 10 16 0.00 0.00
1:58 am 01:58 Clear 39 4 36 2.3 89 89 WNW 8 13 30.28 1025 10 16 0.00 0.00
2:58 am 02:58 Mostly Cloudy 40 4.5 36 2.4 86 86 WNW 6 9 30.29 1026 10 16 0.00 0.00
4:58 am 04:58 Cloudy 38 3.3 34 1 85 85 WNW 9 15 30.30 1026 10 16 0.00 0.00
5:58 am 05:58 Cloudy 38 3.1 33 0.7 84 84 NW 7 11 30.31 1026 10 16 0.00 0.00
6:58 am 06:58 Mostly Clear 35 1.6 32 -0.2 88 88 WNW 7 11 30.33 1027 10 16 0.00 0.00
7:58 am 07:58 Sunny 33 0.4 31 -0.8 92 92 WNW 8 13 30.34 1027 10 16 0.00 0.00
9:58 am 09:58 Sunny 40 4.2 33 0.6 78 78 NW 9 15 30.36 1028 10 16 0.00 0.00
10:58 am 10:58 Sunny 43 6.1 34 0.9 70 70 NW 7 11 30.37 1028 10 16 0.00 0.00
11:58 am 11:58 Sunny 46 7.8 34 1 62 62 WNW 9 15 30.35 1028 10 16 0.00 0.00
12:58 pm 12:58 Sunny 48 9 34 1.3 59 59 NW 6 9 30.33 1027 10 16 0.00 0.00
1:58 pm 13:58 Sunny 51 10.4 34 0.9 52 52 NW 9 15 30.31 1026 10 16 0.00 0.00
2:58 pm 14:58 Sunny 51 10.7 34 1.1 52 52 WNW 9 15 30.31 1026 10 16 0.00 0.00
3:58 pm 15:58 Sunny 50 10.2 32 -0.1 49 49 NW 5 7 30.31 1026 10 16 0.00 0.00
4:58 pm 16:58 Clear 42 5.5 31 -0.5 66 66 W 3 6 30.32 1027 10 16 0.00 0.00
5:58 pm 17:58 Clear 36 2.2 29 -1.4 77 77 Calm 30.32 1027 10 16 0.00 0.00
6:58 pm 18:58 Clear 31 -0.6 28 -2.4 88 88 NNW 1 2 30.32 1027 10 16 0.00 0.00
7:58 pm 19:58 Clear 28 -2.4 27 -3 96 96 ENE 1 2 30.33 1027 10 16 0.00 0.00
8:58 pm 20:58 Clear 26 -3.2 25 -3.8 96 96 Calm 30.32 1027 10 16 0.00 0.00
9:58 pm 21:58 Clear 28 -2.3 28 -2.5 99 99 SW 2 4 30.32 1027 10 16 0.00 0.00
10:58 pm 22:58 Clear 25 -3.9 24 -4.2 98 98 ESE 2 4 30.30 1026 10 16 0.00 0.00
11:58 pm 23:58 Clear 28 -2.3 28 -2.4 99 99 S 2 4 30.29 1026 10 16 0.00 0.00

Powered by AerisWeather